Regional Weather Roundup
Issued by NWS Glasgow, MT

Home | Current Version | Previous Version | Text Only | Print | Product List | Glossary On
Versions: 1 2 3 4 5 6 7 8 9 10 11 12 13 14 15 16 17 18 19 20 21 22 23 24 25 26 27
000
ASUS45 KGGW 201615
RWRGGW
HOURLY REGIONAL WEATHER ROUNDUP FOR NORTHEAST MONTANA
NATIONAL WEATHER SERVICE GLASGOW MONTANA
900 AM MST MON FEB 20 2017

NOTE: "FAIR" INDICATES FEW OR NO CLOUDS BELOW 12,000 FEET WITH NO
SIGNIFICANT WEATHER AND/OR OBSTRUCTIONS TO VISISBILITY.

NORTHEAST MONTANA


CITY           SKY/WX    TMP DP  RH WIND       PRES   REMARKS
GLASGOW        SUNNY     37  31  78 W8        29.74S
PLENTYWOOD       N/A     33  32  96 E2          N/A
WOLF POINT     SUNNY     32  30  92 SW7       29.75S
JORDAN           N/A     37  31  78 CALM      29.77S
WINNETT          N/A     33  30  88 SW1         N/A
SIDNEY         PTSUNNY   38  36  92 S7        29.74S
GLENDIVE       SUNNY     45  33  63 W6        29.77S
MALTA            N/A     35  32  88 E5          N/A

FORT PECK REPORTS


CITY           SKY/WX    TMP DP  RH WIND       PRES   REMARKS
FORT PECK        N/A     42  32  67 W5          N/A
THE PINES        N/A     42  30  62 CALM        N/A

SOUTHEAST MONTANA


CITY           SKY/WX    TMP DP  RH WIND       PRES   REMARKS
BILLINGS       MOSUNNY   42  23  46 SW9       29.78F
MILES CITY     SUNNY     43  29  57 W8        29.80S
BAKER          SUNNY     41  31  67 NW7       29.78F
LIVINGSTON     CLOUDY    43  26  51 SW21G31   29.73F

CENTRAL MONTANA


CITY           SKY/WX    TMP DP  RH WIND       PRES   REMARKS
HAVRE          SUNNY     39  29  67 SW12      29.70F
LEWISTOWN      CLOUDY    38  22  52 CALM      29.73F
GREAT FALLS    SUNNY     39  22  50 S13       29.67F
CUT BANK       MOSUNNY   34  22  61 SE7       29.63F
HELENA         SUNNY     30  26  85 N3        29.71F
BUTTE          CLOUDY    31  22  69 S9        29.72F
BOZEMAN        CLOUDY    33  27  78 CALM      29.74F

WESTERN MONTANA


CITY           SKY/WX    TMP DP  RH WIND       PRES   REMARKS
MISSOULA       CLOUDY    32  31  96 SE17      29.67F
KALISPELL      NOT AVBL

NORTH DAKOTA


CITY           SKY/WX    TMP DP  RH WIND       PRES   REMARKS
WILLISTON      PTSUNNY   36  32  85 SE6       29.72F
DICKINSON      PTSUNNY   43  35  73 W16       29.71S
MINOT          CLOUDY    35  33  92 W10       29.68S FOG
BISMARCK       CLOUDY    38  35  89 NW7       29.71F FOG

SOUTHERN SASKATCHEWAN


CITY           SKY/WX    TMP DP  RH WIND       PRES   REMARKS
REGINA         PTSUNNY   30  30 100 S3        29.66R
MOOSE JAW      PTSUNNY   36  32  87 W7        29.67S
ESTEVAN        PTSUNNY   32  32 100 SW7       29.69F
SWIFT CURRENT  SUNNY     32  28  86 SW10      29.62S





USA.gov is the U.S. government's official web portal to all federal, state and local government web resources and services.